Starlink 5821

operational
NORAD ID: 57069 Int'l Des: 2023-088 Owner: SPXS Country: US Constellation: starlink
LEOCIRCULAR

Starlink 5821について

説明を読み込み中...

リアルタイム位置

3D地球を読み込み中...

次回通過

高度履歴

Altitude vs Time

uPlot chart will show altitude changes over time

軌道要素

1 57069U 23088X 25348.91458731 .00001611 00000-0 13437-3 0 9998
2 57069 43.0011 195.4301 0000985 251.0698 109.0037 15.02510658137592
Epoch: Dec 14, 2025 • Age: 23 hours

現在のステータス

高度 560.9 km
速度 7.59 km/s
衛星直下点 34.02°N, 73.18°W
打ち上げ日 Jun 22, 2023
運用期間 2.4 years
タイプ internet

技術仕様

分類 Payload
質量 305.00 kg
乾燥質量 290.00 kg
総質量 305.00 kg
長さ 0.20 m
直径 2.80 m
スパン 9.00 m
形状 Box + pan
製造者 SPXS
バスタイプ Starlink
フェーズステータス In Orbit
所有者/国 SPXS/US

大規模コンステレーション

Loading constellations...